| time (UTC) | temp F | wind direction | speed MPH | gust MPH | rain 1hr in | rain 24hr in | rain mn in | humidity % | barometer mb |
| 20260905185322 | 95 | 256 | 1.0 | 5.0 | 0.00 | 0.00 | 0.00 | 60 | 1013.2 |
| 20260905184900 | 94 | 268 | 1.0 | 7.0 | 0.00 | 0.00 | 0.00 | 62 | 1013.2 |
| 20260905184331 | 94 | 149 | 4.0 | 7.0 | 0.00 | 0.00 | 0.00 | 61 | 1013.3 |
| 20260905183823 | 93 | 201 | 2.0 | 10.0 | 0.00 | 0.01 | 0.00 | 63 | 1013.3 |
| 20260905183337 | 93 | 124 | 5.0 | 10.0 | 0.00 | 0.01 | 0.00 | 61 | 1013.3 |
| 20260905182830 | 94 | 80 | 3.0 | 8.0 | 0.00 | 0.01 | 0.00 | 62 | 1013.8 |
| 20260905182325 | 93 | 184 | 4.0 | 5.0 | 0.00 | 0.01 | 0.00 | 63 | 1013.8 |
| 20260905181837 | 92 | 40 | 1.0 | 4.0 | 0.00 | 0.01 | 0.00 | 63 | 1013.7 |
| 20260905181349 | 92 | 342 | 0.0 | 6.0 | 0.00 | 0.01 | 0.00 | 63 | 1014.0 |
| 20260905180838 | 92 | 92 | 1.0 | 6.0 | 0.00 | 0.01 | 0.00 | 64 | 1014.0 |
| 20260905180335 | 92 | 75 | 1.0 | 5.0 | 0.00 | 0.01 | 0.00 | 65 | 1014.0 |
| 20260905175825 | 92 | 343 | 4.0 | 5.0 | 0.00 | 0.01 | 0.00 | 63 | 1014.3 |
| 20260905175338 | 92 | 24 | 1.0 | 5.0 | 0.00 | 0.01 | 0.00 | 67 | 1014.3 |
| 20260905174830 | 92 | 70 | 1.0 | 3.0 | 0.00 | 0.01 | 0.00 | 63 | 1014.3 |
| 20260905174321 | 92 | 73 | 1.0 | 4.0 | 0.00 | 0.01 | 0.00 | 64 | 1014.6 |
| 20260905173855 | 91 | 54 | 0.0 | 5.0 | 0.00 | 0.05 | 0.00 | 65 | 1014.6 |
| 20260905173328 | 90 | 73 | 3.0 | 5.0 | 0.00 | 0.05 | 0.00 | 66 | 1014.6 |
| 20260905172841 | 89 | 89 | 2.0 | 4.0 | 0.00 | 0.05 | 0.00 | 67 | 1014.6 |
| 20260905172335 | 89 | 318 | 2.0 | 4.0 | 0.00 | 0.05 | 0.00 | 69 | 1014.6 |
| 20260905171825 | 88 | 269 | 1.0 | 3.0 | 0.00 | 0.05 | 0.00 | 69 | 1014.6 |
| 20260905171337 | 88 | 321 | 1.0 | 4.0 | 0.00 | 0.05 | 0.00 | 70 | 1014.8 |
| 20260905170831 | 89 | 351 | 1.0 | 4.0 | 0.00 | 0.05 | 0.00 | 71 | 1014.8 |
| 20260905170324 | 89 | 316 | 2.0 | 5.0 | 0.00 | 0.05 | 0.00 | 71 | 1014.8 |
| 20260905165856 | 89 | 360 | 2.0 | 6.0 | 0.00 | 0.05 | 0.00 | 71 | 1014.8 |
| 20260905165328 | 90 | 301 | 3.0 | 6.0 | 0.00 | 0.05 | 0.00 | 69 | 1014.8 |
| 20260905164822 | 91 | 292 | 1.0 | 3.0 | 0.00 | 0.05 | 0.00 | 68 | 1014.8 |
| 20260905164334 | 90 | 120 | 0.0 | 3.0 | 0.00 | 0.05 | 0.00 | 66 | 1014.9 |
| 20260905163836 | 90 | 89 | 0.0 | 3.0 | 0.00 | 0.05 | 0.00 | 67 | 1014.9 |
| 20260905163331 | 89 | 63 | 1.0 | 4.0 | 0.00 | 0.05 | 0.00 | 68 | 1014.9 |
| 20260905162823 | 88 | 80 | 0.0 | 4.0 | 0.00 | 0.05 | 0.00 | 69 | 1014.9 |
| 20260905162359 | 88 | 15 | 0.0 | 4.0 | 0.00 | 0.05 | 0.00 | 71 | 1014.9 |
| 20260905161830 | 87 | 67 | 0.0 | 0.0 | 0.00 | 0.05 | 0.00 | 71 | 1014.9 |
| 20260905161325 | 87 | 9 | 0.0 | 0.0 | 0.00 | 0.05 | 0.00 | 75 | 1014.9 |
| 20260905160840 | 87 | 9 | 0.0 | 2.0 | 0.00 | 0.05 | 0.00 | 75 | 1014.9 |
| 20260905160332 | 87 | 95 | 0.0 | 2.0 | 0.00 | 0.05 | 0.00 | 77 | 1014.9 |
| 20260905155823 | 87 | 305 | 1.0 | 2.0 | 0.00 | 0.05 | 0.00 | 76 | 1014.9 |
| 20260905155337 | 87 | 305 | 0.0 | 3.0 | 0.00 | 0.05 | 0.00 | 75 | 1014.9 |
| 20260905154831 | 87 | 305 | 1.0 | 4.0 | 0.00 | 0.05 | 0.00 | 75 | 1014.9 |
| 20260905154348 | 87 | 327 | 2.0 | 4.0 | 0.00 | 0.05 | 0.00 | 75 | 1014.9 |
| 20260905153838 | 87 | 223 | 1.0 | 4.0 | 0.00 | 0.05 | 0.00 | 78 | 1014.9 |
| 20260905153331 | 86 | 229 | 1.0 | 3.0 | 0.00 | 0.05 | 0.00 | 80 | 1014.9 |
| 20260905152823 | 86 | 236 | 1.0 | 3.0 | 0.00 | 0.05 | 0.00 | 81 | 1014.9 |
| 20260905152337 | 85 | 226 | 0.0 | 3.0 | 0.00 | 0.05 | 0.00 | 81 | 1014.9 |
| 20260905151829 | 85 | 317 | 1.0 | 3.0 | 0.00 | 0.05 | 0.00 | 82 | 1014.9 |
| 20260905151322 | 85 | 165 | 0.0 | 1.0 | 0.00 | 0.05 | 0.00 | 85 | 1014.9 |
| 20260905150835 | 85 | 165 | 0.0 | 3.0 | 0.00 | 0.05 | 0.00 | 85 | 1014.9 |
| 20260905150348 | 84 | 165 | 1.0 | 3.0 | 0.00 | 0.05 | 0.00 | 86 | 1014.8 |
| 20260905145838 | 84 | 182 | 1.0 | 2.0 | 0.00 | 0.05 | 0.00 | 86 | 1014.8 |
| 20260905145333 | 84 | 282 | 0.0 | 4.0 | 0.00 | 0.05 | 0.00 | 86 | 1014.8 |
| 20260905144827 | 84 | 315 | 1.0 | 4.0 | 0.00 | 0.05 | 0.00 | 88 | 1014.8 |
| 20260905144338 | 83 | 276 | 1.0 | 3.0 | 0.00 | 0.05 | 0.00 | 90 | 1014.8 |
| 20260905143833 | 83 | 217 | 1.0 | 3.0 | 0.00 | 0.05 | 0.00 | 90 | 1014.8 |
| 20260905143348 | 83 | 189 | 0.0 | 4.0 | 0.00 | 0.05 | 0.00 | 91 | 1014.8 |
| 20260905142837 | 82 | 175 | 0.0 | 5.0 | 0.00 | 0.05 | 0.00 | 92 | 1014.8 |
| 20260905142345 | 82 | 66 | 0.0 | 1.0 | 0.00 | 0.05 | 0.00 | 93 | 1014.8 |
| 20260905141837 | 82 | 66 | 0.0 | 2.0 | 0.00 | 0.05 | 0.00 | 93 | 1014.8 |
| 20260905141332 | 82 | 66 | 0.0 | 2.0 | 0.00 | 0.05 | 0.00 | 94 | 1014.8 |
| 20260905140825 | 81 | 66 | 0.0 | 2.0 | 0.00 | 0.05 | 0.00 | 95 | 1014.8 |
| 20260905140338 | 81 | 66 | 1.0 | 2.0 | 0.00 | 0.05 | 0.00 | 95 | 1014.8 |
| 20260905135828 | 81 | 66 | 0.0 | 0.0 | 0.00 | 0.05 | 0.00 | 95 | 1014.6 |
| 20260905135343 | 80 | 66 | 0.0 | 0.0 | 0.00 | 0.05 | 0.00 | 96 | 1014.6 |
| 20260905134834 | 80 | 147 | 0.0 | 1.0 | 0.00 | 0.05 | 0.00 | 96 | 1014.6 |
| 20260905134328 | 80 | 147 | 0.0 | 1.0 | 0.00 | 0.05 | 0.00 | 97 | 1014.4 |
| 20260905133841 | 79 | 147 | 0.0 | 1.0 | 0.00 | 0.05 | 0.00 | 97 | 1014.4 |
| 20260905133333 | 79 | 147 | 0.0 | 1.0 | 0.00 | 0.05 | 0.00 | 97 | 1014.4 |
| 20260905132846 | 79 | 147 | 0.0 | 1.0 | 0.00 | 0.05 | 0.00 | 97 | 1014.5 |
| 20260905132337 | 79 | 147 | 0.0 | 1.0 | 0.00 | 0.05 | 0.00 | 97 | 1014.5 |
| 20260905131831 | 79 | 147 | 0.0 | 1.0 | 0.00 | 0.05 | 0.00 | 97 | 1014.5 |
| 20260905131346 | 78 | 147 | 0.0 | 1.0 | 0.00 | 0.05 | 0.00 | 97 | 1014.4 |
| 20260905130837 | 78 | 148 | 0.0 | 1.0 | 0.00 | 0.05 | 0.00 | 97 | 1014.4 |
| 20260905130328 | 78 | 148 | 0.0 | 0.0 | 0.00 | 0.05 | 0.00 | 97 | 1014.4 |
| 20260905125839 | 78 | 148 | 0.0 | 0.0 | 0.00 | 0.05 | 0.00 | 97 | 1014.3 |
| 20260905125332 | 77 | 148 | 0.0 | 0.0 | 0.00 | 0.05 | 0.00 | 97 | 1014.3 |
| 20260905124850 | 77 | 148 | 0.0 | 0.0 | 0.00 | 0.05 | 0.00 | 97 | 1014.3 |
| 20260905124320 | 77 | 148 | 0.0 | 0.0 | 0.00 | 0.05 | 0.00 | 97 | 1014.1 |
| 20260905123858 | 77 | 148 | 0.0 | 0.0 | 0.00 | 0.05 | 0.00 | 97 | 1014.1 |
| 20260905123328 | 77 | 148 | 0.0 | 0.0 | 0.00 | 0.05 | 0.00 | 97 | 1014.1 |
| 20260905122840 | 77 | 148 | 0.0 | 0.0 | 0.00 | 0.05 | 0.00 | 97 | 1013.8 |
| 20260905122330 | 77 | 148 | 0.0 | 0.0 | 0.00 | 0.05 | 0.00 | 97 | 1013.8 |
| 20260905121842 | 77 | 147 | 0.0 | 0.0 | 0.00 | 0.05 | 0.00 | 97 | 1013.8 |
| 20260905121331 | 76 | 147 | 0.0 | 0.0 | 0.00 | 0.05 | 0.00 | 97 | 1013.7 |
| 20260905120844 | 77 | 147 | 0.0 | 0.0 | 0.00 | 0.05 | 0.00 | 97 | 1013.7 |
| 20260905120358 | 77 | 147 | 0.0 | 0.0 | 0.00 | 0.05 | 0.00 | 97 | 1013.7 |
| 20260905115858 | 77 | 147 | 0.0 | 0.0 | 0.00 | 0.05 | 0.00 | 97 | 1013.7 |
| 20260905115330 | 77 | 147 | 0.0 | 0.0 | 0.00 | 0.05 | 0.00 | 97 | 1013.7 |
| 20260905114846 | 77 | 147 | 0.0 | 0.0 | 0.00 | 0.05 | 0.00 | 97 | 1013.7 |
| 20260905114322 | 77 | 147 | 0.0 | 0.0 | 0.00 | 0.05 | 0.00 | 97 | 1013.4 |
| 20260905113834 | 77 | 147 | 0.0 | 0.0 | 0.00 | 0.05 | 0.00 | 97 | 1013.4 |
| 20260905113325 | 77 | 147 | 0.0 | 0.0 | 0.00 | 0.05 | 0.00 | 97 | 1013.4 |
| 20260905112843 | 77 | 147 | 0.0 | 0.0 | 0.00 | 0.05 | 0.00 | 97 | 1013.3 |
| 20260905112335 | 77 | 147 | 0.0 | 0.0 | 0.00 | 0.05 | 0.00 | 96 | 1013.3 |
| 20260905111847 | 77 | 147 | 0.0 | 0.0 | 0.00 | 0.05 | 0.00 | 96 | 1013.3 |
| 20260905111340 | 77 | 147 | 0.0 | 0.0 | 0.00 | 0.05 | 0.00 | 96 | 1013.1 |
| 20260905110832 | 77 | 147 | 0.0 | 0.0 | 0.00 | 0.05 | 0.00 | 96 | 1013.1 |
| 20260905110325 | 77 | 147 | 0.0 | 0.0 | 0.00 | 0.05 | 0.00 | 96 | 1013.1 |
| 20260905105836 | 77 | 147 | 0.0 | 0.0 | 0.00 | 0.05 | 0.00 | 96 | 1013.0 |
| 20260905105327 | 77 | 147 | 0.0 | 0.0 | 0.00 | 0.05 | 0.00 | 96 | 1013.0 |
| 20260905104839 | 77 | 147 | 0.0 | 0.0 | 0.00 | 0.05 | 0.00 | 96 | 1013.0 |
| 20260905104331 | 77 | 147 | 0.0 | 0.0 | 0.00 | 0.05 | 0.00 | 96 | 1013.0 |
| 20260905103823 | 77 | 147 | 0.0 | 0.0 | 0.00 | 0.05 | 0.00 | 96 | 1013.0 |
| 20260905103341 | 77 | 147 | 0.0 | 0.0 | 0.00 | 0.05 | 0.00 | 96 | 1013.0 |
| 20260905102835 | 77 | 147 | 0.0 | 0.0 | 0.00 | 0.05 | 0.00 | 96 | 1012.9 |
| 20260905102332 | 77 | 147 | 0.0 | 0.0 | 0.00 | 0.05 | 0.00 | 96 | 1012.9 |
| 20260905101826 | 77 | 147 | 0.0 | 0.0 | 0.00 | 0.05 | 0.00 | 96 | 1012.9 |
| 20260905101339 | 77 | 147 | 0.0 | 0.0 | 0.00 | 0.05 | 0.00 | 96 | 1012.8 |
| 20260905100834 | 77 | 147 | 0.0 | 0.0 | 0.00 | 0.05 | 0.00 | 96 | 1012.8 |
| 20260905100327 | 77 | 147 | 0.0 | 0.0 | 0.00 | 0.05 | 0.00 | 96 | 1012.8 |
| 20260905095837 | 77 | 147 | 0.0 | 0.0 | 0.00 | 0.05 | 0.00 | 96 | 1012.8 |
| 20260905095333 | 77 | 147 | 0.0 | 0.0 | 0.00 | 0.05 | 0.00 | 95 | 1012.8 |
| 20260905094826 | 77 | 147 | 0.0 | 0.0 | 0.00 | 0.05 | 0.00 | 95 | 1012.8 |
| 20260905094322 | 77 | 147 | 0.0 | 0.0 | 0.00 | 0.05 | 0.00 | 95 | 1012.9 |
| 20260905093835 | 77 | 147 | 0.0 | 0.0 | 0.00 | 0.05 | 0.00 | 95 | 1012.9 |
| 20260905093330 | 77 | 147 | 0.0 | 0.0 | 0.00 | 0.05 | 0.00 | 95 | 1012.9 |
| 20260905092823 | 78 | 147 | 0.0 | 0.0 | 0.00 | 0.05 | 0.00 | 95 | 1013.0 |
| 20260905092337 | 78 | 147 | 0.0 | 0.0 | 0.00 | 0.05 | 0.00 | 95 | 1013.0 |
| 20260905091829 | 78 | 147 | 0.0 | 0.0 | 0.00 | 0.05 | 0.00 | 95 | 1013.0 |
| 20260905091322 | 78 | 147 | 0.0 | 0.0 | 0.00 | 0.05 | 0.00 | 95 | 1012.8 |
| 20260905090858 | 78 | 147 | 0.0 | 0.0 | 0.00 | 0.05 | 0.00 | 95 | 1012.8 |
| 20260905090348 | 78 | 147 | 0.0 | 0.0 | 0.00 | 0.05 | 0.00 | 95 | 1012.8 |
| 20260905085838 | 78 | 147 | 0.0 | 0.0 | 0.00 | 0.05 | 0.00 | 95 | 1012.8 |
| 20260905085353 | 78 | 147 | 0.0 | 0.0 | 0.00 | 0.05 | 0.00 | 95 | 1012.8 |
| 20260905084825 | 78 | 147 | 0.0 | 0.0 | 0.00 | 0.05 | 0.00 | 95 | 1012.8 |
| 20260905084340 | 78 | 147 | 0.0 | 0.0 | 0.00 | 0.05 | 0.00 | 95 | 1012.8 |
| 20260905083854 | 78 | 147 | 0.0 | 0.0 | 0.00 | 0.05 | 0.00 | 95 | 1012.8 |
| 20260905083327 | 78 | 147 | 0.0 | 0.0 | 0.00 | 0.05 | 0.00 | 95 | 1012.8 |
| 20260905082839 | 78 | 147 | 0.0 | 0.0 | 0.00 | 0.05 | 0.00 | 95 | 1012.8 |
| 20260905082351 | 78 | 147 | 0.0 | 0.0 | 0.00 | 0.05 | 0.00 | 95 | 1012.8 |
| 20260905081822 | 78 | 147 | 0.0 | 0.0 | 0.00 | 0.05 | 0.00 | 95 | 1012.8 |
| 20260905081334 | 78 | 147 | 0.0 | 1.0 | 0.00 | 0.05 | 0.00 | 94 | 1012.9 |
| 20260905080830 | 78 | 147 | 0.0 | 1.0 | 0.00 | 0.05 | 0.00 | 94 | 1012.9 |
| 20260905080328 | 78 | 147 | 0.0 | 0.0 | 0.00 | 0.05 | 0.00 | 94 | 1012.9 |
| 20260905075838 | 78 | 147 | 0.0 | 0.0 | 0.00 | 0.05 | 0.00 | 94 | 1012.9 |
| 20260905075355 | 78 | 147 | 0.0 | 0.0 | 0.00 | 0.05 | 0.00 | 94 | 1012.9 |
| 20260905074824 | 78 | 147 | 0.0 | 0.0 | 0.00 | 0.05 | 0.00 | 94 | 1012.9 |
| 20260905074339 | 78 | 147 | 0.0 | 0.0 | 0.00 | 0.05 | 0.00 | 94 | 1013.1 |
| 20260905073830 | 79 | 147 | 0.0 | 0.0 | 0.00 | 0.05 | 0.00 | 93 | 1013.2 |
| 20260905073322 | 79 | 147 | 0.0 | 0.0 | 0.00 | 0.05 | 0.00 | 93 | 1013.2 |
| 20260905072834 | 79 | 147 | 0.0 | 0.0 | 0.00 | 0.05 | 0.00 | 93 | 1013.3 |
| 20260905072330 | 79 | 147 | 0.0 | 0.0 | 0.00 | 0.05 | 0.00 | 93 | 1013.3 |
| 20260905071822 | 79 | 147 | 0.0 | 0.0 | 0.00 | 0.05 | 0.00 | 93 | 1013.3 |
| 20260905071334 | 79 | 147 | 0.0 | 0.0 | 0.00 | 0.05 | 0.00 | 92 | 1013.4 |
| 20260905070824 | 79 | 147 | 0.0 | 0.0 | 0.00 | 0.05 | 0.00 | 92 | 1013.4 |
| 20260905070335 | 79 | 147 | 0.0 | 0.0 | 0.00 | 0.05 | 0.00 | 92 | 1013.4 |
| 20260905065844 | 80 | 147 | 0.0 | 0.0 | 0.00 | 0.05 | 0.00 | 92 | 1013.4 |
| 20260905065338 | 80 | 147 | 0.0 | 0.0 | 0.00 | 0.05 | 0.00 | 92 | 1013.4 |
| 20260905064831 | 80 | 147 | 0.0 | 0.0 | 0.00 | 0.05 | 0.00 | 92 | 1013.4 |
| 20260905064322 | 80 | 147 | 0.0 | 0.0 | 0.00 | 0.05 | 0.00 | 91 | 1013.4 |
| 20260905063834 | 80 | 147 | 0.0 | 0.0 | 0.00 | 0.05 | 0.00 | 91 | 1013.4 |
| 20260905063349 | 80 | 147 | 0.0 | 0.0 | 0.00 | 0.05 | 0.00 | 91 | 1013.4 |
| 20260905062841 | 80 | 147 | 0.0 | 1.0 | 0.00 | 0.05 | 0.00 | 91 | 1013.6 |
| 20260905062354 | 80 | 147 | 0.0 | 2.0 | 0.00 | 0.05 | 0.00 | 91 | 1013.6 |
| 20260905061845 | 80 | 147 | 0.0 | 2.0 | 0.00 | 0.05 | 0.00 | 91 | 1013.6 |
| 20260905061339 | 80 | 147 | 0.0 | 0.0 | 0.00 | 0.05 | 0.00 | 91 | 1013.7 |
| 20260905060832 | 80 | 147 | 0.0 | 0.0 | 0.00 | 0.05 | 0.00 | 90 | 1013.7 |
| 20260905060327 | 80 | 147 | 0.0 | 0.0 | 0.00 | 0.05 | 0.00 | 90 | 1013.7 |
| 20260905055837 | 80 | 147 | 0.0 | 0.0 | 0.00 | 0.05 | 0.00 | 90 | 1013.6 |
| 20260905055330 | 80 | 147 | 0.0 | 0.0 | 0.00 | 0.05 | 0.00 | 90 | 1013.6 |
| 20260905054825 | 81 | 147 | 0.0 | 0.0 | 0.00 | 0.05 | 0.00 | 90 | 1013.6 |
| 20260905054359 | 81 | 147 | 0.0 | 0.0 | 0.00 | 0.05 | 0.00 | 89 | 1013.7 |
| 20260905053850 | 81 | 147 | 0.0 | 0.0 | 0.00 | 0.05 | 0.00 | 89 | 1013.7 |
| 20260905053341 | 81 | 147 | 0.0 | 0.0 | 0.00 | 0.05 | 0.00 | 88 | 1013.7 |
| 20260905052836 | 81 | 147 | 0.0 | 0.0 | 0.00 | 0.05 | 0.00 | 88 | 1013.8 |
| 20260905052329 | 81 | 147 | 0.0 | 0.0 | 0.00 | 0.05 | 0.00 | 88 | 1013.8 |
| 20260905051841 | 81 | 147 | 0.0 | 0.0 | 0.00 | 0.05 | 0.00 | 88 | 1013.8 |
| 20260905051334 | 82 | 147 | 0.0 | 2.0 | 0.00 | 0.05 | 0.00 | 88 | 1013.7 |
| 20260905050829 | 82 | 147 | 0.0 | 2.0 | 0.00 | 0.05 | 0.00 | 88 | 1013.7 |
| 20260905050320 | 82 | 183 | 0.0 | 2.0 | 0.00 | 0.05 | 0.00 | 87 | 1013.7 |
| 20260905045828 | 82 | 183 | 0.0 | 2.0 | 0.00 | 0.05 | 0.05 | 87 | 1013.7 |
| 20260905045340 | 82 | 183 | 0.0 | 3.0 | 0.00 | 0.05 | 0.05 | 87 | 1013.7 |
| 20260905044833 | 82 | 125 | 0.0 | 3.0 | 0.00 | 0.05 | 0.05 | 87 | 1013.7 |
| 20260905044325 | 82 | 184 | 1.0 | 3.0 | 0.00 | 0.05 | 0.05 | 87 | 1013.8 |
| 20260905043842 | 82 | 183 | 2.0 | 3.0 | 0.00 | 0.05 | 0.05 | 86 | 1013.8 |
| 20260905043332 | 82 | 183 | 1.0 | 4.0 | 0.00 | 0.05 | 0.05 | 86 | 1013.8 |
| 20260905042843 | 82 | 184 | 1.0 | 4.0 | 0.00 | 0.05 | 0.05 | 86 | 1013.8 |
| 20260905042355 | 82 | 154 | 1.0 | 4.0 | 0.00 | 0.05 | 0.05 | 86 | 1013.8 |
| 20260905041829 | 82 | 172 | 2.0 | 4.0 | 0.00 | 0.05 | 0.05 | 85 | 1013.8 |
| 20260905041322 | 83 | 189 | 1.0 | 5.0 | 0.00 | 0.05 | 0.05 | 85 | 1013.8 |
| 20260905040835 | 83 | 186 | 2.0 | 5.0 | 0.00 | 0.05 | 0.05 | 85 | 1013.8 |
| 20260905040326 | 83 | 184 | 3.0 | 6.0 | 0.00 | 0.05 | 0.05 | 84 | 1013.8 |
| 20260905035834 | 83 | 143 | 2.0 | 6.0 | 0.00 | 0.05 | 0.05 | 84 | 1013.8 |
| 20260905035326 | 83 | 175 | 2.0 | 6.0 | 0.00 | 0.05 | 0.05 | 84 | 1013.8 |
| 20260905034839 | 83 | 194 | 3.0 | 7.0 | 0.00 | 0.05 | 0.05 | 84 | 1013.8 |
| 20260905034355 | 82 | 170 | 2.0 | 7.0 | 0.00 | 0.05 | 0.05 | 84 | 1013.8 |
| 20260905033825 | 82 | 185 | 2.0 | 3.0 | 0.00 | 0.05 | 0.05 | 84 | 1013.8 |
| 20260905033338 | 82 | 175 | 2.0 | 3.0 | 0.00 | 0.05 | 0.05 | 84 | 1013.8 |
| 20260905032830 | 82 | 185 | 0.0 | 0.0 | 0.00 | 0.05 | 0.05 | 84 | 1014.0 |
| 20260905032345 | 82 | 185 | 0.0 | 0.0 | 0.00 | 0.05 | 0.05 | 83 | 1014.0 |
| 20260905031856 | 82 | 185 | 0.0 | 0.0 | 0.00 | 0.05 | 0.05 | 83 | 1014.0 |
| 20260905031347 | 82 | 185 | 0.0 | 0.0 | 0.00 | 0.05 | 0.05 | 83 | 1014.0 |
| 20260905030839 | 82 | 185 | 0.0 | 0.0 | 0.00 | 0.05 | 0.05 | 82 | 1014.0 |
| 20260905030335 | 82 | 185 | 0.0 | 0.0 | 0.00 | 0.05 | 0.05 | 82 | 1014.0 |
| 20260905025826 | 82 | 185 | 0.0 | 0.0 | 0.00 | 0.05 | 0.05 | 82 | 1013.8 |
| 20260905025340 | 82 | 185 | 0.0 | 1.0 | 0.00 | 0.05 | 0.05 | 82 | 1013.8 |
| 20260905024835 | 82 | 185 | 0.0 | 2.0 | 0.00 | 0.05 | 0.05 | 82 | 1013.8 |
| 20260905024330 | 82 | 185 | 0.0 | 2.0 | 0.00 | 0.05 | 0.05 | 82 | 1013.8 |
| 20260905023824 | 82 | 185 | 0.0 | 0.0 | 0.00 | 0.05 | 0.05 | 81 | 1013.8 |
| 20260905023336 | 82 | 185 | 0.0 | 0.0 | 0.00 | 0.05 | 0.05 | 81 | 1013.8 |
| 20260905022830 | 82 | 185 | 0.0 | 1.0 | 0.00 | 0.05 | 0.05 | 81 | 1013.6 |
| 20260905022337 | 82 | 185 | 0.0 | 1.0 | 0.00 | 0.05 | 0.05 | 80 | 1013.6 |
| 20260905021852 | 82 | 185 | 0.0 | 0.0 | 0.00 | 0.05 | 0.05 | 80 | 1013.6 |
| 20260905021323 | 82 | 185 | 0.0 | 0.0 | 0.00 | 0.05 | 0.05 | 80 | 1013.4 |
| 20260905020837 | 82 | 185 | 0.0 | 2.0 | 0.00 | 0.05 | 0.05 | 80 | 1013.4 |
| 20260905020332 | 82 | 185 | 0.0 | 2.0 | 0.00 | 0.05 | 0.05 | 79 | 1013.4 |
| 20260905015843 | 82 | 185 | 1.0 | 4.0 | 0.00 | 0.05 | 0.05 | 79 | 1013.3 |
| 20260905015354 | 82 | 185 | 2.0 | 5.0 | 0.00 | 0.05 | 0.05 | 78 | 1013.3 |
| 20260905014847 | 82 | 142 | 3.0 | 5.0 | 0.00 | 0.05 | 0.05 | 78 | 1013.3 |
| 20260905014338 | 82 | 181 | 0.0 | 5.0 | 0.00 | 0.05 | 0.05 | 78 | 1013.2 |
| 20260905013832 | 82 | 189 | 2.0 | 5.0 | 0.00 | 0.05 | 0.05 | 79 | 1013.2 |
| 20260905013326 | 81 | 158 | 4.0 | 7.0 | 0.00 | 0.05 | 0.05 | 79 | 1013.2 |
| 20260905012840 | 81 | 134 | 3.0 | 7.0 | 0.00 | 0.05 | 0.05 | 79 | 1013.2 |
| 20260905012354 | 81 | 156 | 4.0 | 12.0 | 0.00 | 0.05 | 0.05 | 80 | 1013.2 |
| 20260905011825 | 81 | 140 | 4.0 | 12.0 | 0.00 | 0.05 | 0.05 | 80 | 1013.2 |
| 20260905011339 | 81 | 137 | 4.0 | 8.0 | 0.00 | 0.05 | 0.05 | 80 | 1013.2 |
| 20260905010855 | 81 | 127 | 5.0 | 11.0 | 0.00 | 0.05 | 0.05 | 80 | 1013.2 |
| 20260905010326 | 81 | 139 | 8.0 | 12.0 | 0.00 | 0.05 | 0.05 | 79 | 1013.2 |
| 20260905005859 | 82 | 127 | 8.0 | 12.0 | 0.00 | 0.05 | 0.05 | 79 | 1012.9 |
| 20260905005347 | 83 | 144 | 8.0 | 16.0 | 0.00 | 0.05 | 0.05 | 79 | 1013.0 |
| 20260905004838 | 84 | 165 | 8.0 | 21.0 | 0.00 | 0.05 | 0.05 | 79 | 1013.0 |
| 20260905004351 | 87 | 137 | 11.0 | 21.0 | 0.00 | 0.05 | 0.05 | 74 | 1012.7 |
| 20260905003823 | 88 | 73 | 0.0 | 5.0 | 0.00 | 0.05 | 0.05 | 71 | 1012.7 |
| 20260905003335 | 88 | 108 | 1.0 | 5.0 | 0.00 | 0.05 | 0.05 | 70 | 1012.7 |
| 20260905002830 | 88 | 57 | 1.0 | 2.0 | 0.00 | 0.05 | 0.05 | 70 | 1012.3 |
| 20260905002324 | 88 | 80 | 0.0 | 1.0 | 0.00 | 0.05 | 0.05 | 70 | 1012.3 |
| 20260905001835 | 88 | 80 | 0.0 | 1.0 | 0.00 | 0.05 | 0.05 | 70 | 1012.3 |
| 20260905001331 | 88 | 80 | 0.0 | 3.0 | 0.00 | 0.05 | 0.05 | 70 | 1012.3 |
| 20260905000843 | 88 | 80 | 0.0 | 5.0 | 0.00 | 0.05 | 0.05 | 69 | 1012.3 |
| 20260905000340 | 89 | 80 | 3.0 | 5.0 | 0.00 | 0.05 | 0.05 | 69 | 1012.3 |
| 20260904235849 | 89 | 73 | 0.0 | 5.0 | 0.00 | 0.05 | 0.05 | 69 | 1012.3 |
| 20260904235338 | 89 | 73 | 0.0 | 5.0 | 0.00 | 0.05 | 0.05 | 69 | 1012.3 |
| 20260904234830 | 89 | 68 | 1.0 | 4.0 | 0.00 | 0.05 | 0.05 | 69 | 1012.3 |
| 20260904234324 | 89 | 78 | 1.0 | 6.0 | 0.00 | 0.05 | 0.05 | 69 | 1012.4 |
| 20260904233837 | 90 | 60 | 1.0 | 8.0 | 0.00 | 0.05 | 0.05 | 69 | 1012.5 |
| 20260904233330 | 90 | 81 | 1.0 | 5.0 | 0.00 | 0.05 | 0.05 | 69 | 1012.5 |
| 20260904232823 | 91 | 82 | 1.0 | 4.0 | 0.00 | 0.05 | 0.05 | 70 | 1012.4 |
| 20260904232403 | 91 | 75 | 2.0 | 4.0 | 0.00 | 0.05 | 0.05 | 68 | 1012.4 |
| 20260904231835 | 91 | 74 | 1.0 | 5.0 | 0.00 | 0.05 | 0.05 | 68 | 1012.4 |
| 20260904231327 | 91 | 70 | 1.0 | 5.0 | 0.00 | 0.05 | 0.05 | 68 | 1012.3 |
| 20260904230820 | 91 | 61 | 3.0 | 5.0 | 0.00 | 0.05 | 0.05 | 67 | 1012.3 |
| 20260904230330 | 91 | 68 | 1.0 | 5.0 | 0.00 | 0.05 | 0.05 | 68 | 1012.3 |
| 20260904225823 | 90 | 54 | 1.0 | 7.0 | 0.00 | 0.05 | 0.05 | 68 | 1012.4 |
| 20260904225402 | 91 | 73 | 3.0 | 7.0 | 0.00 | 0.05 | 0.05 | 66 | 1012.4 |
| 20260904224834 | 92 | 96 | 2.0 | 4.0 | 0.00 | 0.05 | 0.05 | 65 | 1012.4 |
| 20260904224330 | 91 | 84 | 1.0 | 7.0 | 0.00 | 0.05 | 0.05 | 66 | 1012.4 |
| 20260904223821 | 91 | 26 | 1.0 | 6.0 | 0.00 | 0.05 | 0.05 | 66 | 1012.4 |
| 20260904223337 | 92 | 64 | 1.0 | 7.0 | 0.00 | 0.05 | 0.05 | 66 | 1012.4 |
| 20260904222849 | 92 | 99 | 2.0 | 7.0 | 0.00 | 0.05 | 0.05 | 66 | 1012.7 |
| 20260904222340 | 93 | 123 | 2.0 | 10.0 | 0.00 | 0.05 | 0.05 | 66 | 1012.7 |
| 20260904221852 | 94 | 120 | 3.0 | 10.0 | 0.00 | 0.05 | 0.05 | 63 | 1012.7 |
| 20260904221324 | 94 | 36 | 2.0 | 4.0 | 0.00 | 0.05 | 0.05 | 59 | 1012.7 |
| 20260904220835 | 94 | 351 | 0.0 | 5.0 | 0.00 | 0.05 | 0.05 | 61 | 1012.7 |
| 20260904220328 | 94 | 45 | 0.0 | 5.0 | 0.00 | 0.05 | 0.05 | 59 | 1012.7 |
| 20260904215820 | 94 | 223 | 2.0 | 3.0 | 0.00 | 0.05 | 0.05 | 61 | 1012.8 |
| 20260904215342 | 94 | 46 | 2.0 | 3.0 | 0.00 | 0.05 | 0.05 | 62 | 1012.8 |
| 20260904214855 | 93 | 334 | 2.0 | 4.0 | 0.00 | 0.05 | 0.05 | 61 | 1012.7 |
| 20260904214329 | 94 | 244 | 3.0 | 5.0 | 0.00 | 0.05 | 0.05 | 61 | 1012.8 |
| 20260904213823 | 94 | 182 | 1.0 | 5.0 | 0.00 | 0.06 | 0.05 | 62 | 1012.8 |
| 20260904213335 | 93 | 176 | 1.0 | 5.0 | 0.00 | 0.06 | 0.05 | 62 | 1012.8 |
| 20260904212828 | 93 | 222 | 2.0 | 4.0 | 0.00 | 0.06 | 0.05 | 65 | 1012.8 |
| 20260904212341 | 92 | 220 | 0.0 | 4.0 | 0.00 | 0.06 | 0.05 | 64 | 1012.8 |
| 20260904211833 | 92 | 59 | 2.0 | 4.0 | 0.00 | 0.06 | 0.05 | 65 | 1012.8 |
| 20260904211325 | 92 | 357 | 1.0 | 3.0 | 0.00 | 0.06 | 0.05 | 66 | 1013.2 |
| 20260904210837 | 92 | 66 | 0.0 | 4.0 | 0.00 | 0.06 | 0.05 | 66 | 1013.2 |
| 20260904210331 | 92 | 81 | 2.0 | 5.0 | 0.00 | 0.06 | 0.05 | 65 | 1013.2 |
| 20260904205820 | 93 | 66 | 1.0 | 5.0 | 0.00 | 0.06 | 0.05 | 64 | 1013.4 |
| 20260904205403 | 93 | 23 | 1.0 | 4.0 | 0.00 | 0.06 | 0.05 | 63 | 1013.4 |
| 20260904204834 | 93 | 205 | 1.0 | 3.0 | 0.00 | 0.06 | 0.05 | 65 | 1013.4 |
| 20260904204328 | 92 | 256 | 2.0 | 3.0 | 0.00 | 0.06 | 0.05 | 65 | 1013.8 |
| 20260904203838 | 92 | 194 | 1.0 | 5.0 | 0.00 | 0.10 | 0.05 | 65 | 1013.8 |
| 20260904203330 | 92 | 140 | 1.0 | 5.0 | 0.00 | 0.10 | 0.05 | 67 | 1013.8 |
| 20260904202822 | 91 | 141 | 0.0 | 3.0 | 0.00 | 0.10 | 0.05 | 71 | 1013.9 |
| 20260904202337 | 90 | 141 | 1.0 | 3.0 | 0.00 | 0.10 | 0.05 | 72 | 1013.9 |
| 20260904201832 | 90 | 322 | 2.0 | 5.0 | 0.00 | 0.10 | 0.05 | 72 | 1013.9 |
| 20260904201347 | 91 | 230 | 4.0 | 5.0 | 0.00 | 0.10 | 0.05 | 71 | 1013.9 |
| 20260904200858 | 90 | 157 | 0.0 | 3.0 | 0.00 | 0.10 | 0.05 | 73 | 1013.9 |
| 20260904200328 | 89 | 227 | 1.0 | 4.0 | 0.00 | 0.10 | 0.05 | 75 | 1013.9 |
| 20260904195900 | 88 | 320 | 2.0 | 4.0 | 0.00 | 0.10 | 0.05 | 74 | 1014.3 |
| 20260904195334 | 88 | 260 | 3.0 | 4.0 | 0.00 | 0.10 | 0.05 | 73 | 1014.3 |
| 20260904194827 | 88 | 72 | 2.0 | 5.0 | 0.00 | 0.10 | 0.05 | 75 | 1014.3 |
| 20260904194339 | 87 | 129 | 3.0 | 5.0 | 0.00 | 0.10 | 0.05 | 75 | 1014.3 |
| 20260904193830 | 86 | 236 | 0.0 | 3.0 | 0.00 | 0.21 | 0.05 | 78 | 1014.3 |
| 20260904193325 | 84 | 220 | 1.0 | 3.0 | 0.00 | 0.21 | 0.05 | 81 | 1014.3 |
| 20260904192844 | 82 | 194 | 2.0 | 2.0 | 0.00 | 0.21 | 0.05 | 85 | 1014.4 |
| 20260904192335 | 81 | 139 | 0.0 | 3.0 | 0.00 | 0.21 | 0.05 | 86 | 1014.4 |
| 20260904191829 | 81 | 139 | 0.0 | 3.0 | 0.00 | 0.21 | 0.05 | 88 | 1014.4 |
| 20260904191322 | 80 | 137 | 1.0 | 3.0 | 0.00 | 0.21 | 0.05 | 88 | 1014.8 |
| 20260904190836 | 80 | 232 | 0.0 | 3.0 | 0.00 | 0.21 | 0.05 | 89 | 1014.8 |
| 20260904190325 | 79 | 117 | 0.0 | 4.0 | 0.00 | 0.21 | 0.05 | 89 | 1014.8 |
| 20260904185841 | 79 | 96 | 2.0 | 4.0 | 0.00 | 0.21 | 0.05 | 90 | 1015.1 |